STARLINK-3153, 49431

Orbit data source: Space-Track

STARLINK-3153, 49431 is a payload satellite owned by SpaceX/Seattle (US) in LEO that was launched on Sat, 13 Nov 2021 UTC via an FALCON 9 launch vehicle from the Air Force Eastern Test Range (AFETR). Payload-class satellites include a variety of spacecraft equipped with specific instruments for various scientific and technological missions. These include communications satellites like Starlink; space stations such as the ISS; scientific satellites like the Hubble; Earth observation satellites from companies like Planet Labs, Umbra, and HawkEye 360; GPS; miniature CubeSats for education and research; and military/defense satellites.

Loading next visibility...
Identifier
49431, 2021-104Z
Orbit
LEO
Country
Flag of USUS
Related business
Manufacturer
SpaceX/Seattle
Mission
Operational Commercial Communications
Bus & Motor
STARLINK, Unknown motor
Mass
290 kg wet, ~270 kg dry
Launch date (UTC)
2021-11-13 (5 years ago)
Launch vehicle
FALCON 9
Launch site
Air Force Eastern Test Range (AFETR)
Object type
Payload
Rocket body
Debris
Shape & HBR
Box + 1 Pan, 10.1 m
Radar Cross Section
13.562 m², Large (>1 m²)

Expand to show TLE details & history
Last TLE update: 1 week ago

TLE from 1 week ago
0 STARLINK-3153
1 49431U 21104Z   26154.29412275 -.00000426  00000-0 -86491-5 0  9996
2 49431  53.1831 204.9929 0001271  49.7404 310.3699 15.08831948251554
Epoch: 2026-06-03T07:03Z
TLE epoch observation values (Epoch: 2026-06-03T07:03:32.205Z)
Latitude
-0.00001°
Longitude
-152.6461°
Altitude
540.092 km
Speed
7.594 km/s
True Right ascension
13h 39m 58s
True Declination
0° 00' 00"
Sunlit
Object was in full shadow at epoch
Visualization orbit readout
Latitude
Unknown
Longitude
Unknown
Altitude
Unknown
Speed
Unknown
Apparent Right ascension
Unknown
Apparent Declination
Unknown
Sunlit
N/A
Visualization observer readout
Local Sidereal Time
14:53:24
Azimuth
Unknown
Elevation
Unknown
Doppler factor
Unknown
Orbital elements
Apogee altitude
540.898 km
Perigee altitude
539.139 km
Semi-major axis
6,918.155 km
Eccentricity
0.00013
Inclination
53.1831°
RAAN
204.9929°
Arg. of periapsis
49.7404°
True anomaly
310.3588°
Mean anomaly
310.3699°
Eccentric anomaly
310.36435°
Mean motion
3.77188 °/min
Orbital period
95.44 mins
BSTAR
-0.0000086491
Loading maneuver chart data...
Computing Atmospheric mass density...
Loading historical data...
Loading historical data...
Loading historical data...
Loading historical data...
Loading historical data...
Loading historical data...
Loading historical data...

Documentation

Showing up to 5 results
|